Regional Weather Roundup
Issued by NWS Green Bay, WI

Home | Current Version | Previous Version | Text Only | Print | Product List | Glossary On
Versions: 1 2 3 4 5 6 7 8 9 10 11 12 13 14 15 16 17 18 19 20 21 22 23 24 25 26 27 28 29 30 31 32 33 34 35 36 37 38 39 40 41 42 43 44 45 46 47 48 49 50
000
ASUS43 KGRB 110211
RWRGRB

NORTH-CENTRAL AND NORTHEAST WISCONSIN REGIONAL WEATHER ROUNDUP
NATIONAL WEATHER SERVICE GREEN BAY WI
800 PM CST SUN DEC 10 2017

WIZ005-009-010>012-018-019-110300-
NORTH CENTRAL WISCONSIN

CITY           SKY/WX    TMP DP  RH WIND       PRES   REMARKS
IRONWOOD       NOT AVBL
MANITOWISH WTR FLURRIES  15  13  92 SW3       29.97S
ARBOR VITAE    FLURRIES  17  12  82 CALM      29.98S
EAGLE RIVER    CLOUDY    16   8  68 NW5       29.97S WCI   9
LAND O LAKES   FLURRIES  15  12  90 CALM      29.98S
RHINELANDER    CLOUDY    18  12  77 W6        29.99R WCI  10
PHILLIPS       CLOUDY    13  11  90 CALM      29.99F
ANTIGO         FLURRIES  19  14  82 NW7       30.00R WCI   9
TOMAHAWK       CLOUDY    17   9  73 NW3       30.02R
MERRILL        CLOUDY    20  12  71 NW3       30.02R
$$

WIZ013-073-110300-
NORTHEAST WISCONSIN

CITY           SKY/WX    TMP DP  RH WIND       PRES   REMARKS
IRON MOUNTAIN  CLOUDY    15   8  73 N3        30.00R
MARINETTE      CLOUDY    20  12  71 N5        30.06R
OCONTO         CLOUDY    21  10  62 N7        30.06R
$$

WIZ017-030-035>037-045-110300-
CENTRAL WISCONSIN

CITY           SKY/WX    TMP DP  RH WIND       PRES   REMARKS
MEDFORD        CLOUDY    18  11  76 CALM      30.00S
WAUSAU         CLOUDY    21  12  68 VRB7      30.01S
MOSINEE        CLOUDY    21  14  73 NW8       30.04R
MARSHFIELD     CLOUDY    21  15  78 NW5       30.02R
WISC RAPIDS    CLOUDY    24  15  68 NW6       30.06R
STEVENS POINT  CLOUDY    21  15  76 N3        30.04R
WAUPACA        CLOUDY    27  16  63 N6        30.06R
SHAWANO        CLOUDY    25  14  61 N5        30.05R
CLINTONVILLE   CLOUDY    25  16  68 N3        30.05R
WAUTOMA        CLOUDY    24  17  74 W7        30.06R
$$

WIZ038-039-048-051-110300-
FOX VALLEY

CITY           SKY/WX    TMP DP  RH WIND       PRES   REMARKS
NWS GREEN BAY  CLOUDY    25  16  68 N6        30.05R
APPLETON       CLOUDY    25  16  68 N6        30.02R
OSHKOSH        CLOUDY    25  18  74 W6        30.04R
FOND DU LAC    CLOUDY    26  16  65 NW6       30.05R
$$

WIZ022-050-052-110300-
EAST CENTRAL WISCONSIN

CITY           SKY/WX    TMP DP  RH WIND       PRES   REMARKS
EPHRAIM        MOCLDY    18   8  63 NW10      30.03R WCI   7
WASHINGTON ISL MOCLDY    18   7  62 N9G17     30.03S WCI   7
STURGEON BAY   CLOUDY    22  12  65 NW12      30.04R
MANITOWOC      CLOUDY    24  16  71 NW6       30.05R
SHEBOYGAN      CLOUDY    25  20  81 NW3       30.04R
$$

LMZ563-521-522-541>543-110300-
LAKESHORE

STATION/POSITION TIME  TEMP    WIND        PRES    VSBY  WAVE
                       AIR SEA DIR/SP/G                  HT/PER
                 (UTC) (F)     (DEG/KT/KT) (MB)    (MI)  (FT/S)
SHEBOYGAN LKSHOR 0200   27     310/  7/  9 1018.5R
KEWAUNEE LKSHORE 0142   24     330/  7/ 11 1016.6R
NORTHPORT PIER   0140   21     330/ 14/ 19 1017.3R
MENOMINEE LKSHOR 0142   22     350/ 11/ 13 1017.3R
$$




USA.gov is the U.S. government's official web portal to all federal, state and local government web resources and services.